Location: Losili
(4.4086°N, 32.7049°E)
Time: 07:51:51
(UTC+00:00)

IRS-1A Rocket - Pass Details

Date: 18 September 2019
Orbit: 852 x 931 km, 99.2° (Epoch: 18 October)

Event Time Altitude Azimuth Distance (km) Brightness Sun altitude
Exits shadow 17:30:10 26° 168° (SSE) 1,711 5.6 -26.5°
Maximum altitude 17:33:36 87° 255° (WSW) 918 4.2 -27.3°
Drops below altitude 10° 17:39:22 10° 346° (NNW) 2,570 6.9 -28.7°
Sets 17:41:44 0° 347° (NNW) 3,497 7.6 -29.3°
